Home   Weather   Nanaimo   Past weeks

Flag for Canada Past Weather in Nanaimo, British Columbia, Canada — Yesterday and Last 2 Weeks

Now
68 °F

Mild.


Feels Like: 68 °F
Forecast: 58 / 75 °F
Wind: 7 mph from Northwest

Location: Entrance Island

Current Time: Aug 20, 2017 at 9:43:09 pm

Latest Report: Aug 20, 2017 at 9:00 pm


Visibility: N/A

Pressure: 30.09 "Hg

Humidity: 61%

Dew Point: 53 °F

Location of NanaimoLocation

Past Weather in Nanaimo — Graph

°F

Nanaimo Temperature Yesterday

Maximum temperature yesterday: 67 °F (at 5:00 pm)
Minimum temperature yesterday: 60 °F (at 4:00 am)
Average temperature yesterday: 62 °F

High & Low Weather Summary for the Past Weeks

 TemperatureHumidityPressure
High73 °F (Aug 10, 6:00 pm)94% (Aug 13, 2:00 am)30.20 "Hg (Aug 13, 2:00 am)
Low59 °F (Aug 13, 6:00 am)57% (Aug 20, 7:00 pm)29.82 "Hg (Aug 11, 9:00 pm)
Average64 °F79%29.99 "Hg
* Reported Aug 5 8:00 pm — Aug 20 8:00 pm, Nanaimo. Weather by CustomWeather, © 2017

Note: Actual official high and low records may vary slightly from our data, if they occured in-between our weather recording intervals... More about our weather records

Advertising

Nanaimo Weather History for the Previous 24 Hours

Scroll right to see more
 ConditionsComfort  
Time TempWeatherWind HumidityBarometerVisibility
8:00 pm
Sun, Aug 20
68 °FMild.3 mph58%30.08 "HgN/A
7:00 pm68 °FMild.2 mph57%30.09 "HgN/A
6:00 pm69 °FMild.2 mph68%30.08 "HgN/A
5:00 pm68 °FMild.3 mph70%30.09 "HgN/A
4:00 pm68 °FMild.3 mph63%30.11 "HgN/A
3:00 pm65 °FMild.6 mph73%30.11 "HgN/A
2:00 pm65 °FMild.8 mph71%30.13 "HgN/A
1:00 pm63 °FMild.9 mph75%30.13 "HgN/A
12:00 pm63 °FMild.9 mph81%30.14 "HgN/A
11:00 am63 °FMild.8 mph82%30.14 "HgN/A
10:00 am62 °FCool.7 mph81%30.14 "HgN/A
9:00 am62 °FCool.6 mph80%30.14 "HgN/A
8:00 am60 °FCool.7 mph85%30.14 "HgN/A
7:00 am60 °FCool.5 mph86%30.14 "HgN/A
6:00 am60 °FCool.6 mph85%30.13 "HgN/A
5:00 am61 °FCool.7 mph83%30.13 "HgN/A
4:00 am60 °FCool.5 mph81%30.13 "HgN/A
3:00 am63 °FMild.2 mph71%30.14 "HgN/A
2:00 am61 °FCool.1 mph70%30.13 "HgN/A
1:00 am62 °FCool.2 mph71%30.13 "HgN/A
12:00 am61 °FCool.2 mph75%30.14 "HgN/A
11:00 pm
Sat, Aug 19
62 °FCool.2 mph70%30.14 "HgN/A
10:00 pm63 °FMild.1 mph60%30.14 "HgN/A
9:00 pm63 °FMild.1 mph73%30.14 "HgN/A
Weather by CustomWeather, © 2017

See weather overviewHow to use our weather pages